[[{"header":{"parameterUnit":"m.s-1","parameterCategory":1,"la1":30.2991,"la2":30.254,"lo1":-89.0895,"lo2":-89.0444,"dy":0.0017,"dx":0.0017,"nx":28,"ny":28,"refTime":"2024-02-17T09:00:00:Z","depth":0,"parameterNumber":2,"parameterNumberName":"U-component_of_WINDS"},"data":[0,0,0,0,0,0,0,0,0,0,0,0,0,0,0,0,0,0,0,0,0,0,0,0,0,0,0,0,0,0,0,0,0,0,0,0,0,0,0,0,0,0,0,0,0,0,0,0,0,0,0,0,0,0,0,0,0,0,-0.2564,-0.2566,0,-0.2667,-0.2669,-0.267,-0.267,-0.2669,-0.2668,-0.2666,-0.2776,-0.278,-0.2784,0,0,0,0,0,0,0,0,0,0,0,0,0,-0.2371,-0.2375,-0.2564,-0.2566,-0.2567,-0.2667,-0.2669,-0.267,-0.267,-0.2669,-0.2667,-0.2666,-0.2774,-0.2779,-0.2784,0,0,0,0,0,0,0,0,0,0,0,0,0,-0.2463,-0.2376,-0.2564,-0.2579,-0.2581,-0.2667,-0.2669,-0.267,-0.2671,-0.2669,-0.2667,-0.2665,-0.2773,-0.2779,-0.2785,-0.2864,0,0,-0.2804,-0.2807,0,0,0,0,0,0,0,0,-0.2458,-0.247,-0.2576,-0.2578,-0.2581,-0.2654,-0.2641,-0.2735,-0.2671,-0.2637,-0.2666,-0.2664,-0.2737,-0.2746,-0.277,-0.2869,-0.2873,-0.2805,-0.2808,-0.2811,-0.2813,0,0,0,0,0,0,0,-0.2451,-0.2466,-0.2605,-0.2577,-0.258,-0.2582,-0.2593,-0.2659,-0.2697,-0.264,-0.264,-0.2652,-0.2738,-0.2764,-0.2773,-0.2875,-0.2804,-0.281,-0.2814,-0.2816,-0.3044,-0.3046,0,0,0,0,0,0,-0.2442,-0.246,-0.2602,-0.2608,-0.2513,-0.2587,-0.2599,-0.2633,-0.2696,-0.2704,-0.2654,-0.2652,-0.2754,-0.2765,-0.2776,-0.2873,-0.2811,-0.2817,-0.282,-0.3042,-0.3044,-0.3047,0,0,0,0,0,0,-0.2437,-0.2454,-0.2598,-0.2534,-0.2553,-0.2592,-0.263,-0.2636,-0.2661,-0.2707,-0.2714,-0.2673,-0.2753,-0.2768,-0.2842,-0.2877,-0.282,-0.2825,-0.3039,-0.3042,-0.3046,-0.3067,0,0,0,0,0,0,-0.2432,-0.2453,-0.2482,-0.2535,-0.2556,-0.2661,-0.2632,-0.2639,-0.2672,-0.267,-0.2727,-0.2734,-0.2753,-0.2832,-0.2848,-0.2885,-0.283,-0.3036,-0.304,-0.3045,-0.3064,-0.3071,-0.3078,0,0,0,0,0,-0.2425,-0.2485,-0.2484,-0.2501,-0.2594,-0.2663,-0.2675,-0.2694,-0.2674,-0.2705,-0.2734,-0.2732,-0.287,-0.284,-0.2857,-0.2897,-0.3034,-0.3039,-0.3044,-0.3061,-0.307,-0.3077,0,0,0,0,0,0,-0.2437,-0.2492,-0.2492,-0.257,-0.2611,-0.2662,-0.2702,-0.2703,-0.2751,-0.2748,-0.2771,-0.2784,-0.2858,-0.2884,-0.285,-0.2976,-0.295,-0.2959,-0.2956,-0.2965,-0.2972,-0.2965,-0.2835,0,0,0,0,0,-0.2449,-0.2499,-0.2545,-0.261,-0.263,-0.2662,-0.2693,-0.2704,-0.2748,-0.2766,-0.2801,-0.2845,-0.2898,-0.2933,-0.2984,-0.3067,-0.308,-0.3102,-0.3109,-0.3115,-0.3123,-0.3169,-0.318,-0.3064,-0.3064,-0.3064,0,0,-0.2474,-0.251,-0.2541,-0.2613,-0.2646,-0.2699,-0.2677,-0.2734,-0.2773,-0.2775,-0.2847,-0.2874,-0.2925,-0.3003,-0.304,-0.3028,-0.3157,-0.3121,-0.3125,-0.3131,-0.3176,-0.3187,-0.3197,-0.3067,-0.3067,-0.3066,0,0,-0.2547,-0.2578,-0.2636,-0.267,-0.272,-0.274,-0.2754,-0.2805,-0.2822,-0.2894,-0.2897,-0.2945,-0.3036,-0.3072,-0.3102,-0.3187,-0.3188,-0.3203,-0.324,-0.3285,-0.3295,-0.3303,-0.3335,-0.3345,-0.3211,-0.3211,-0.3211,0,-0.2572,-0.265,-0.2666,-0.2723,-0.2755,-0.2757,-0.2817,-0.2849,-0.2914,-0.2937,-0.2921,-0.3036,-0.307,-0.3158,-0.3178,-0.3202,-0.322,-0.3198,-0.3292,-0.33,-0.3308,-0.3339,-0.335,-0.3213,-0.3212,-0.3212,-0.3212,0,-0.2679,-0.2733,-0.2774,-0.2836,-0.2872,-0.293,-0.2956,-0.2991,-0.2999,-0.3021,-0.3095,-0.3136,-0.3196,-0.3217,-0.3225,-0.3306,-0.3297,-0.3286,-0.3261,-0.3321,-0.335,-0.3361,-0.3215,-0.3214,-0.3214,-0.3214,0,0,-0.2765,-0.2833,-0.2848,-0.2876,-0.2931,-0.2973,-0.3031,-0.3088,-0.3119,-0.3163,-0.3213,-0.329,-0.328,-0.3314,-0.3326,-0.3365,-0.3432,-0.3351,-0.3352,-0.3366,-0.3525,-0.3534,-0.3547,-0.3431,-0.3433,-0.3435,-0.3521,0,-0.2845,-0.2947,-0.2963,-0.3053,-0.3104,-0.3106,-0.3156,-0.3196,-0.3218,-0.3265,-0.329,-0.3345,-0.3327,-0.3348,-0.3386,-0.3415,-0.3464,-0.3409,-0.348,-0.3482,-0.3469,-0.3562,-0.3572,-0.365,-0.3532,-0.3534,-0.3536,0,-0.2952,-0.2998,-0.3093,-0.314,-0.3162,-0.3208,-0.3261,-0.3306,-0.3351,-0.3364,-0.3402,-0.3409,-0.347,-0.344,-0.3525,-0.3487,-0.3517,-0.3535,-0.3539,-0.3548,-0.3514,-0.3575,-0.3676,-0.3688,-0.3553,-0.3552,-0.3551,0,-0.3007,-0.3092,-0.316,-0.3184,-0.324,-0.3272,-0.3298,-0.334,-0.3374,-0.3421,-0.3443,-0.3497,-0.3527,-0.3569,-0.3591,-0.3566,-0.3675,-0.3646,-0.3689,-0.3689,-0.3714,-0.3713,-0.3823,-0.373,-0.373,-0.373,-0.3729,0,-0.3096,-0.3154,-0.3186,-0.3228,-0.3293,-0.3311,-0.3376,-0.34,-0.3438,-0.3486,-0.3491,-0.3536,-0.356,-0.3609,-0.3627,-0.3696,-0.3709,-0.3722,-0.3727,-0.3723,-0.3722,-0.3745,-0.374,-0.3733,-0.3732,-0.3731,-0.3731,0,-0.3169,-0.3192,-0.3267,-0.3313,-0.3327,-0.3373,-0.3414,-0.3455,-0.3476,-0.3537,-0.3552,-0.3586,-0.3643,-0.3668,-0.374,-0.3751,-0.3831,-0.383,-0.3815,-0.3817,-0.3859,-0.3856,-0.399,-0.4009,-0.3902,-0.3903,-0.3903,0,-0.3225,-0.327,-0.3321,-0.3353,-0.3379,-0.343,-0.3463,-0.3482,-0.3517,-0.3571,-0.3606,-0.3664,-0.3711,-0.3803,-0.3835,-0.3889,-0.3891,-0.3934,-0.39,-0.3895,-0.3894,-0.3892,-0.3897,-0.3941,-0.3943,-0.3943,-0.3944,0,-0.3323,-0.3332,-0.338,-0.3431,-0.3471,-0.3512,-0.3553,-0.3579,-0.3604,-0.3644,-0.3702,-0.3738,-0.381,-0.3868,-0.3924,-0.3951,-0.3953,-0.3954,-0.3967,-0.3966,-0.3956,-0.3963,-0.3835,-0.3952,-0.3951,-0.395,-0.395,-0.395,-0.3391,-0.3431,-0.3473,-0.3526,-0.3558,-0.3596,-0.3637,-0.3663,-0.3711,-0.3771,-0.3779,-0.3841,-0.3885,-0.3961,-0.399,-0.404,-0.4029,-0.4048,-0.4053,-0.4058,-0.4062,-0.3946,-0.405,-0.405,-0.405,-0.4049,-0.4049,0,-0.3491,-0.3517,-0.3565,-0.3622,-0.3664,-0.3659,-0.3704,-0.3739,-0.3794,-0.3834,-0.3879,-0.3946,-0.4002,-0.4037,-0.4093,-0.4126,-0.4129,-0.4141,-0.414,-0.4146,-0.4067,-0.4051,-0.4138,-0.4138,-0.4138,-0.4138,-0.4138,-0.4138,-0.3547,-0.3615,-0.3629,-0.3713,-0.3739,-0.38,-0.3826,-0.3861,-0.3893,-0.3967,-0.4013,-0.4034,-0.4073,-0.4132,-0.4183,-0.4192,-0.4213,-0.4226,-0.4235,-0.4161,-0.4152,-0.4143,-0.4128,-0.423,-0.423,-0.431,-0.4311,-0.4311]},{"header":{"parameterUnit":"m.s-1","parameterCategory":1,"la1":30.2991,"la2":30.254,"lo1":-89.0895,"lo2":-89.0444,"dy":0.0017,"dx":0.0017,"nx":28,"ny":28,"refTime":"2024-02-17T09:00:00:Z","depth":0,"parameterNumber":3,"parameterNumberName":"V-component_of_WINDS"},"data":[0,0,0,0,0,0,0,0,0,0,0,0,0,0,0,0,0,0,0,0,0,0,0,0,0,0,0,0,0,0,0,0,0,0,0,0,0,0,0,0,0,0,0,0,0,0,0,0,0,0,0,0,0,0,0,0,0,0,-4.3717,-4.3718,0,-4.3795,-4.3796,-4.3797,-4.3724,-4.3721,-4.3718,-4.3716,-4.3793,-4.3797,-4.3802,0,0,0,0,0,0,0,0,0,0,0,0,0,-4.3501,-4.3505,-4.3717,-4.3718,-4.3719,-4.3795,-4.3796,-4.3797,-4.3725,-4.3721,-4.3718,-4.3714,-4.3791,-4.3797,-4.3802,0,0,0,0,0,0,0,0,0,0,0,0,0,-4.3588,-4.3507,-4.3717,-4.3692,-4.3691,-4.3795,-4.3796,-4.3797,-4.3726,-4.3721,-4.3717,-4.3713,-4.3789,-4.3796,-4.3803,-4.3935,0,0,-4.3825,-4.3828,0,0,0,0,0,0,0,0,-4.3583,-4.3596,-4.3695,-4.3694,-4.3693,-4.3746,-4.3748,-4.3843,-4.3727,-4.3712,-4.3716,-4.3711,-4.378,-4.3788,-4.3812,-4.3938,-4.3942,-4.3826,-4.383,-4.3833,-4.3835,0,0,0,0,0,0,0,-4.3577,-4.3593,-4.3748,-4.3696,-4.3695,-4.3676,-4.3683,-4.3766,-4.377,-4.3713,-4.3708,-4.3718,-4.3779,-4.3805,-4.3813,-4.3943,-4.3825,-4.3832,-4.3836,-4.3839,-4.4178,-4.4182,0,0,0,0,0,0,-4.3575,-4.3588,-4.3745,-4.375,-4.3626,-4.3683,-4.3692,-4.3733,-4.3769,-4.377,-4.3722,-4.3715,-4.3795,-4.3805,-4.3816,-4.3971,-4.3833,-4.384,-4.3844,-4.4173,-4.4179,-4.4184,0,0,0,0,0,0,-4.357,-4.3589,-4.3742,-4.3668,-4.3686,-4.3691,-4.3738,-4.3737,-4.3763,-4.3775,-4.3775,-4.3749,-4.3792,-4.3806,-4.3905,-4.3972,-4.3843,-4.3849,-4.4168,-4.4175,-4.4182,-4.4283,0,0,0,0,0,0,-4.3564,-4.3588,-4.364,-4.367,-4.369,-4.3832,-4.3743,-4.3741,-4.3776,-4.3767,-4.38,-4.3802,-4.379,-4.3895,-4.3912,-4.398,-4.3855,-4.4162,-4.4171,-4.4179,-4.4273,-4.4292,-4.4308,0,0,0,0,0,-4.3557,-4.3665,-4.3643,-4.3662,-4.3755,-4.3836,-4.3848,-4.3833,-4.3782,-4.3833,-4.384,-4.3801,-4.3962,-4.3906,-4.3925,-4.3995,-4.4157,-4.4168,-4.4179,-4.4265,-4.4289,-4.4308,0,0,0,0,0,0,-4.3642,-4.3668,-4.3644,-4.3765,-4.3799,-4.3824,-4.3888,-4.3858,-4.3907,-4.3896,-4.3874,-4.3882,-4.3988,-4.4001,-4.3938,-4.4123,-4.4051,-4.4066,-4.4111,-4.4133,-4.415,-4.4144,-4.3861,0,0,0,0,0,-4.3675,-4.374,-4.3759,-4.3864,-4.3882,-4.3882,-4.3917,-4.3903,-4.3937,-4.3951,-4.3965,-4.3999,-4.4056,-4.4095,-4.415,-4.4275,-4.428,-4.4332,-4.435,-4.4364,-4.4377,-4.4442,-4.4466,-4.4219,-4.4219,-4.4219,0,0,-4.3743,-4.3766,-4.3809,-4.3882,-4.3906,-4.3973,-4.3895,-4.3969,-4.4018,-4.3961,-4.4056,-4.4068,-4.4104,-4.4217,-4.4267,-4.4231,-4.4446,-4.4378,-4.4389,-4.4394,-4.4456,-4.4479,-4.45,-4.4226,-4.4225,-4.4224,0,0,-4.3902,-4.3927,-4.4016,-4.4042,-4.408,-4.4079,-4.4101,-4.413,-4.4136,-4.4231,-4.4189,-4.4246,-4.4347,-4.4374,-4.44,-4.4567,-4.4532,-4.4585,-4.4677,-4.4741,-4.476,-4.4777,-4.4836,-4.4857,-4.4598,-4.4599,-4.4599,0,-4.3983,-4.4083,-4.4065,-4.4143,-4.4175,-4.4127,-4.4216,-4.4242,-4.4296,-4.4319,-4.4278,-4.4402,-4.4423,-4.454,-4.4581,-4.4605,-4.4627,-4.4582,-4.4759,-4.4776,-4.4792,-4.4847,-4.4869,-4.4605,-4.4604,-4.4603,-4.4603,0,-4.4179,-4.4249,-4.4316,-4.437,-4.441,-4.4493,-4.4486,-4.4528,-4.4509,-4.4512,-4.4608,-4.4631,-4.4688,-4.4715,-4.4697,-4.4829,-4.4805,-4.4763,-4.469,-4.4822,-4.4873,-4.4894,-4.4613,-4.4611,-4.4609,-4.4608,0,0,-4.4395,-4.4437,-4.4462,-4.4485,-4.4523,-4.4576,-4.4655,-4.4711,-4.4748,-4.4786,-4.4851,-4.4936,-4.4896,-4.4926,-4.4911,-4.4967,-4.5096,-4.4917,-4.4917,-4.4949,-4.5241,-4.5273,-4.5298,-4.5073,-4.5077,-4.508,-4.5237,0,-4.4554,-4.4694,-4.468,-4.4812,-4.4875,-4.4829,-4.4898,-4.4928,-4.4932,-4.4985,-4.4988,-4.5049,-4.4992,-4.501,-4.5063,-4.5069,-4.5154,-4.5058,-4.5132,-4.5135,-4.5124,-4.5325,-4.5359,-4.5507,-4.5258,-4.5261,-4.5264,0,-4.476,-4.4806,-4.4945,-4.4971,-4.4997,-4.506,-4.5109,-4.5161,-4.5192,-4.5191,-4.5225,-4.5199,-4.5276,-4.5202,-4.5308,-4.5242,-4.5271,-4.5279,-4.5284,-4.529,-4.5207,-4.5336,-4.5554,-4.5576,-4.5295,-4.5293,-4.529,0,-4.4903,-4.4999,-4.5094,-4.5115,-4.5148,-4.5193,-4.5209,-4.5236,-4.5271,-4.5313,-4.5335,-4.5386,-4.5414,-4.5453,-4.5441,-4.5388,-4.5549,-4.5474,-4.5548,-4.5549,-4.5585,-4.5583,-4.581,-4.5604,-4.5604,-4.5604,-4.5603,0,-4.5082,-4.5169,-4.5158,-4.5217,-4.5311,-4.5292,-4.5386,-4.5396,-4.542,-4.5478,-4.5441,-4.5496,-4.5477,-4.5531,-4.5521,-4.5609,-4.5622,-4.5622,-4.5619,-4.5626,-4.5626,-4.5644,-4.5634,-4.5609,-4.5608,-4.5607,-4.5606,0,-4.5258,-4.5254,-4.5355,-4.5378,-4.5386,-4.5454,-4.5473,-4.5527,-4.5527,-4.5601,-4.5617,-4.5618,-4.5678,-4.567,-4.5738,-4.5731,-4.5841,-4.5825,-4.5831,-4.5827,-4.5902,-4.5894,-4.6149,-4.618,-4.5955,-4.5957,-4.5959,0,-4.5373,-4.5438,-4.5468,-4.5505,-4.5524,-4.5584,-4.5618,-4.5601,-4.5639,-4.5679,-4.5727,-4.5785,-4.583,-4.5929,-4.5934,-4.5985,-4.5969,-4.6055,-4.5977,-4.5981,-4.5969,-4.5966,-4.5971,-4.607,-4.6073,-4.6075,-4.6077,0,-4.5577,-4.5571,-4.5623,-4.5675,-4.5717,-4.5756,-4.5792,-4.5823,-4.5809,-4.5853,-4.5915,-4.595,-4.6018,-4.6075,-4.6123,-4.6137,-4.6104,-4.6101,-4.6121,-4.6128,-4.6129,-4.6128,-4.5872,-4.6095,-4.6094,-4.6092,-4.6091,-4.609,-4.5725,-4.578,-4.581,-4.5868,-4.5893,-4.5926,-4.5978,-4.5984,-4.6036,-4.6091,-4.6077,-4.6147,-4.6175,-4.6235,-4.6254,-4.6307,-4.6276,-4.6305,-4.6312,-4.6319,-4.6328,-4.612,-4.6316,-4.6315,-4.6315,-4.6314,-4.6314,0,-4.5926,-4.5943,-4.5997,-4.6047,-4.6093,-4.6059,-4.6095,-4.6135,-4.6197,-4.6226,-4.6271,-4.6341,-4.6396,-4.6405,-4.6456,-4.6496,-4.6483,-4.651,-4.6507,-4.651,-4.6354,-4.6331,-4.6521,-4.652,-4.652,-4.652,-4.652,-4.652,-4.6036,-4.6128,-4.6125,-4.6228,-4.6243,-4.6312,-4.6335,-4.6365,-4.6388,-4.6468,-4.6513,-4.6519,-4.6539,-4.6591,-4.6639,-4.664,-4.666,-4.6694,-4.6689,-4.6542,-4.6522,-4.6502,-4.6481,-4.6698,-4.6699,-4.6841,-4.6843,-4.6844]}]]